Links & Downloads

Hier präsentieren wir eine Auswahl wichtiger Downloads und interessanter Internetseiten. Wir versuchen, diese Seite immer auf aktuellem Stand zu halten.

Dokumente & Programme

  FluPP, ein kostenloses Flugbuch für Windows, mit dem man seine Flüge (Segelflug, Ultraleicht, Motorsegler, Motorflug...) verwalten kann
 
OLC - Segelflugszene

  Alle Streckenflüge des VfS |   Streckenflüge ab Krefeld |   Landesliga - Tabelle

Wetter


METAR / TAF Düsseldorf

[Quelle: ADDS]
METAR
EDDL 231350Z 28010KT 250V330 9999 SCT020 BKN060 17/10 Q1026 NOSIG =
TAF
EDDL 231100Z 2312/2418 30009KT 9999 SCT030 BKN045 BECMG 2317/2319 32003KT PROB30 TEMPO 2404/2407 BKN014 BECMG 2406/2409 33008KT =
SR / SS: 03:17 / 19:52 UTC ( 2018-06-23)

Luftsportportale

Verbände

Behörden

 
Bundesamt für Naturschutz:
Gebiete mit Vogelvorkommen mit besonderer Luftfahrtrelevanz (Aircraft relevant Bird Area)
1.   Allgemein
2.   Niederrhein

Fliegerärzte

Webshops

Vereinsflieger